Weather History for Lamoni, IA

Change the Weather History Date:

Friday, August 22, 2014

  Actual Average Record
Temperature  
Mean Temperature 79 °F 73 °F  
Max Temperature 85 °F 83 °F 96 °F (1948)
Min Temperature 73 °F 63 °F 52 °F (1966)
Degree Days  
Heating Degree Days 0 0  
Month to date heating degree days 0 0  
Since 1 June heating degree days 12 21  
Since 1 July heating degree days 7 2  
Cooling Degree Days 14 8  
Month to date cooling degree days 179 209  
Year to date cooling degree days 710 772  
Since 1 June cooling degree days 598 718  
Growing Degree Days 28 (Base 50)    
Moisture  
Dew Point 74 °F    
Average Humidity 84    
Maximum Humidity 94    
Minimum Humidity 74    
Precipitation  
Precipitation T in 0.13 in 2.26 in (1988)
Month to date precipitation 8.12 2.95  
Sea Level Pressure  
Sea Level Pressure 29.91 in    
Wind  
Wind Speed 7 mph (SW)    
Max Wind Speed 31 mph    
Max Gust Speed 42 mph    
Visibility 10 miles    
Events Rain , Thunderstorm    
T = Trace of Precipitation, MM = Missing Value Source: NWS Daily Summary

Daily Weather History Graph

Daily Weather History Graph

Search for Another Location

Airport:

Trip Planner

Search our weather history database for the weather conditions in past years. The results will help you decide how hot, cold, wet, or windy it might be!

Date:

Astronomy

Aug. 22, 2014 Rise Set
Actual Time 6:32 AM CDT 8:03 PM CDT
Civil Twilight 6:04 AM CDT 8:31 PM CDT
Nautical Twilight 5:29 AM CDT 9:06 PM CDT
Astronomical Twilight 4:52 AM CDT 9:43 PM CDT
Moon 3:55 AM CDT (8/22) 6:12 PM CDT (8/22)
Length of Visible Light 14h 27m
Length of Day
13h 30m
Waning Crescent, 7% of the Moon is Illuminated
Aug 22
Waning Crescent
Aug 25
New
Sep 2
First Quarter
Sep 8
Full
Sep 15
Last Quarter

Hourly Weather History & Observations

Time (CDT) Temp. Heat Index Dew Point Humidity Pressure Visibility Wind Dir Wind Speed Gust Speed Precip Events Conditions
12:53 AM 81.0 °F 85.8 °F 73.0 °F 77% 29.85 in 10.0 mi SSW 12.7 mph - N/A   Clear
1:53 AM 80.1 °F 84.2 °F 73.0 °F 79% 29.85 in 10.0 mi SSW 11.5 mph - N/A   Clear
2:50 AM 78.8 °F - 73.4 °F 83% 29.90 in 10.0 mi WSW 11.5 mph - N/A Thunderstorm Mostly Cloudy
2:53 AM 79.0 °F - 73.0 °F 82% 29.88 in 10.0 mi WSW 11.5 mph - N/A Thunderstorm Mostly Cloudy
3:13 AM 73.9 °F - 71.1 °F 91% 29.95 in 10.0 mi NW 16.1 mph 31.1 mph 0.00 in Rain , Thunderstorm Light Rain
3:24 AM 73.0 °F - 70.0 °F 90% 29.94 in 10.0 mi NNW 10.4 mph 20.7 mph 0.00 in Rain , Thunderstorm Light Rain
3:48 AM 73.4 °F - 69.8 °F 88% 29.94 in 10.0 mi NNW 4.6 mph - 0.00 in   Scattered Clouds
4:53 AM 73.0 °F - 69.1 °F 87% 29.89 in 10.0 mi SE 5.8 mph - N/A   Clear
5:53 AM 73.0 °F - 70.0 °F 90% 29.91 in 10.0 mi SSE 4.6 mph - N/A   Clear
7:53 AM 75.0 °F - 71.1 °F 87% 29.90 in 10.0 mi South 8.1 mph - N/A   Clear
8:53 AM 80.1 °F 84.5 °F 73.9 °F 81% 29.90 in 10.0 mi South 10.4 mph - N/A   Clear
9:53 AM 80.1 °F 84.2 °F 73.0 °F 79% 29.91 in 10.0 mi SW 12.7 mph - N/A   Clear
10:53 AM 82.0 °F 87.9 °F 73.9 °F 76% 29.91 in 10.0 mi WSW 13.8 mph 20.7 mph N/A   Scattered Clouds
11:53 AM 84.0 °F 91.9 °F 75.0 °F 74% 29.92 in 10.0 mi SSW 10.4 mph - N/A   Clear
12:53 PM 82.9 °F 90.8 °F 75.9 °F 79% 29.93 in 10.0 mi SW 6.9 mph - N/A   Clear
1:53 PM 82.9 °F 90.8 °F 75.9 °F 79% 29.92 in 10.0 mi South 6.9 mph - N/A   Clear
2:53 PM 82.9 °F 90.2 °F 75.0 °F 77% 29.90 in 10.0 mi SSE 5.8 mph - N/A   Clear
4:53 PM 84.0 °F 91.9 °F 75.0 °F 74% 29.94 in 10.0 mi SW 8.1 mph - N/A   Mostly Cloudy
5:53 PM 82.0 °F 88.6 °F 75.0 °F 79% 29.91 in 10.0 mi NNW 3.5 mph - N/A   Clear
6:53 PM 81.0 °F 86.7 °F 75.0 °F 82% 29.90 in 10.0 mi SE 3.5 mph - N/A   Clear
7:53 PM 79.0 °F - 75.9 °F 90% 29.91 in 10.0 mi North 4.6 mph - N/A   Clear
8:53 PM 78.1 °F - 75.9 °F 93% 29.93 in 8.0 mi North 6.9 mph - N/A   Clear
9:53 PM 77.0 °F - 75.0 °F 94% 29.92 in 8.0 mi Calm Calm - N/A   Clear
10:53 PM 77.0 °F - 75.0 °F 94% 29.91 in 7.0 mi Calm Calm - N/A   Clear
11:53 PM 78.1 °F - 75.0 °F 90% 29.92 in 10.0 mi SSE 4.6 mph - N/A   Clear